Weather Data

Pearl Creek Farm: 8878 N Farm Road 75, Walnut Grove MO 65770

<== Previous Day (Saturday 26 Mar 2011) | Next Day (Monday 28 Mar 2011) ==>

Summary Precipitation Data For Sunday 27 March 2011

ElementValueUnits
Precipitation0.4"
Notes(none)
SourcePearl Creek Farm

Summary Temperature Data For Sunday 27 March 2011

ElementValueUnits
High Temperature42 oF
Low Temperature32 oF
Average Temperature35 oF
High Humidity92 %
Low Humidity71 %
Average Humidity83 %
SourcePearl Creek Farm

Detail Temperature Data For Sunday 27 March 2011

Date / TimeTemp (F)RH (%)Dew Pt (F)Report Date / TimeSource
2011-03-27 00:00:00 32 92 29.9 2011-05-13 22:19:16 Pearl Creek Farm
2011-03-27 00:30:00 32 92 29.9 2011-05-13 22:19:16 Pearl Creek Farm
2011-03-27 01:00:00 32 92 29.9 2011-05-13 22:19:16 Pearl Creek Farm
2011-03-27 01:30:00 32 92 29.9 2011-05-13 22:19:16 Pearl Creek Farm
2011-03-27 02:00:00 32 92 29.8 2011-05-13 22:19:16 Pearl Creek Farm
2011-03-27 02:30:00 32 91 29.7 2011-05-13 22:19:16 Pearl Creek Farm
2011-03-27 03:00:00 32 91 29.7 2011-05-13 22:19:16 Pearl Creek Farm
2011-03-27 03:30:00 32 91 29.7 2011-05-13 22:19:16 Pearl Creek Farm
2011-03-27 04:00:00 32 91 29.7 2011-05-13 22:19:16 Pearl Creek Farm
2011-03-27 04:30:00 32 91 29.5 2011-05-13 22:19:16 Pearl Creek Farm
2011-03-27 05:00:00 32 91 29.7 2011-05-13 22:19:16 Pearl Creek Farm
2011-03-27 05:30:00 32 91 29.5 2011-05-13 22:19:16 Pearl Creek Farm
2011-03-27 06:00:00 32 91 29.7 2011-05-13 22:19:16 Pearl Creek Farm
2011-03-27 06:30:00 32 91 29.5 2011-05-13 22:19:16 Pearl Creek Farm
2011-03-27 07:00:00 32 90 29.4 2011-05-13 22:19:16 Pearl Creek Farm
2011-03-27 07:30:00 32 90 29.3 2011-05-13 22:19:16 Pearl Creek Farm
2011-03-27 08:00:00 32 90 29.4 2011-05-13 22:19:16 Pearl Creek Farm
2011-03-27 08:30:00 32 89 29.0 2011-05-13 22:19:16 Pearl Creek Farm
2011-03-27 09:00:00 32 89 29.0 2011-05-13 22:19:16 Pearl Creek Farm
2011-03-27 09:30:00 32 88 28.9 2011-05-13 22:19:16 Pearl Creek Farm
2011-03-27 10:00:00 33 86 29.3 2011-05-13 22:19:16 Pearl Creek Farm
2011-03-27 10:30:00 33 86 29.1 2011-05-13 22:19:16 Pearl Creek Farm
2011-03-27 11:00:00 34 85 30.0 2011-05-13 22:19:16 Pearl Creek Farm
2011-03-27 11:30:00 34 85 29.8 2011-05-13 22:19:16 Pearl Creek Farm
2011-03-27 12:00:00 34 85 29.8 2011-05-13 22:19:16 Pearl Creek Farm
2011-03-27 12:30:00 35 85 30.8 2011-05-13 22:19:16 Pearl Creek Farm
2011-03-27 13:00:00 35 84 30.7 2011-05-13 22:19:16 Pearl Creek Farm
2011-03-27 13:30:00 36 83 31.4 2011-05-13 22:19:16 Pearl Creek Farm
2011-03-27 14:00:00 37 81 31.6 2011-05-13 22:19:16 Pearl Creek Farm
2011-03-27 14:30:00 38 80 32.4 2011-05-13 22:19:16 Pearl Creek Farm
2011-03-27 15:00:00 40 80 34.2 2011-05-13 22:19:16 Pearl Creek Farm
2011-03-27 15:30:00 41 78 34.5 2011-05-13 22:19:16 Pearl Creek Farm
2011-03-27 16:00:00 41 77 34.2 2011-05-13 22:19:16 Pearl Creek Farm
2011-03-27 16:30:00 42 76 35.0 2011-05-13 22:19:16 Pearl Creek Farm
2011-03-27 17:00:00 42 75 34.7 2011-05-13 22:19:16 Pearl Creek Farm
2011-03-27 17:30:00 41 75 33.5 2011-05-13 22:19:16 Pearl Creek Farm
2011-03-27 18:00:00 40 76 32.9 2011-05-13 22:19:16 Pearl Creek Farm
2011-03-27 18:30:00 40 73 31.9 2011-05-13 22:19:16 Pearl Creek Farm
2011-03-27 19:00:00 40 73 31.9 2011-05-13 22:19:16 Pearl Creek Farm
2011-03-27 19:30:00 39 71 30.2 2011-05-13 22:19:16 Pearl Creek Farm
2011-03-27 20:00:00 38 72 29.6 2011-05-13 22:19:16 Pearl Creek Farm
2011-03-27 20:30:00 37 72 28.7 2011-05-13 22:19:16 Pearl Creek Farm
2011-03-27 21:00:00 37 72 28.7 2011-05-13 22:19:16 Pearl Creek Farm
2011-03-27 21:30:00 37 71 28.5 2011-05-13 22:19:16 Pearl Creek Farm
2011-03-27 22:00:00 36 73 28.2 2011-05-13 22:19:16 Pearl Creek Farm
2011-03-27 22:30:00 35 77 28.4 2011-05-13 22:19:16 Pearl Creek Farm
2011-03-27 23:00:00 34 79 28.2 2011-05-13 22:19:16 Pearl Creek Farm
2011-03-27 23:30:00 34 81 28.8 2011-05-13 22:19:16 Pearl Creek Farm

A total of 48 rows are displayed.